McMinnville, OR

8:55 AM PDT on July 24, 2017 (GMT -0700)
McMinnville Municipal

Weather History for KMMV - November, 2012

Change the Weather History Date:

Thursday, November 8, 2012

  Actual Average Record
Temperature  
Mean Temperature 41 °F 47 °F  
Max Temperature 48 °F 54 °F 74 °F (1923)
Min Temperature 34 °F 39 °F 23 °F (1936)
Degree Days  
Heating Degree Days 24 18  
Month to date heating degree days 91 142  
Since 1 July heating degree days 519 765  
Cooling Degree Days 0 0  
Month to date cooling degree days 0 0  
Year to date cooling degree days 300 215  
Moisture  
Dew Point 37 °F    
Average Humidity 82    
Maximum Humidity 93    
Minimum Humidity 71    
Precipitation  
Precipitation T in 0.20 in 3.45 in (1896)
Month to date precipitation 0.72 1.57  
Year to date precipitation 35.20 28.43  
Snow  
Snow 0.00 in - - ()
Month to date snowfall 0.0  
Snow Depth 0.00 in    
Sea Level Pressure  
Sea Level Pressure 29.83 in    
Wind  
Wind Speed 1 mph (NNW)    
Max Wind Speed 6 mph    
Max Gust Speed 17 mph    
Visibility 7 miles    
Events      
T = Trace of Precipitation, MM = Missing Value Source: NWS Daily Summary

Daily Weather History Graph

Daily Weather History Graph

Search for Another Location

Airport or City:

Trip Planner

Search our weather history database for the weather conditions in past years. The results will help you decide how hot, cold, wet, or windy it might be!

Date:

Astronomy

Nov. 08, 2012 Rise Set
Actual Time 7:01 AM PST 4:50 PM PST
Civil Twilight 6:30 AM PST 5:21 PM PST
Nautical Twilight 5:55 AM PST 5:56 PM PST
Astronomical Twilight 5:20 AM PST 6:31 PM PST
Moon 12:47 AM PST (11/8) 1:48 PM PST (11/8)
Length of Visible Light 10h 50m
Length of Day
9h 48m
Waning Crescent, 32% of the Moon is Illuminated
Nov 8
Waning Crescent
Nov 13
New
Nov 20
First Quarter
Nov 28
Full
Dec 6
Last Quarter

Hourly Weather History & Observations

Time (PST) Temp. Windchill Dew Point Humidity Pressure Visibility Wind Dir Wind Speed Gust Speed Precip Events Conditions
12:33 AM 37.4 °F - 35.6 °F 93% 29.93 in 7.0 mi Calm Calm - N/A   Scattered Clouds
12:53 AM 37.9 °F - 35.1 °F 89% 29.92 in 10.0 mi Calm Calm - N/A   Scattered Clouds
1:53 AM 35.1 °F - 33.1 °F 92% 29.91 in 9.0 mi Calm Calm - N/A   Partly Cloudy
2:53 AM 35.1 °F - 32.0 °F 89% 29.88 in 5.0 mi Calm Calm - N/A   Partly Cloudy
3:53 AM 36.0 °F - 33.1 °F 89% 29.86 in 10.0 mi Calm Calm - N/A   Overcast
4:40 AM 35.6 °F - 33.8 °F 93% 29.84 in 9.0 mi Calm Calm - N/A   Overcast
4:53 AM 35.1 °F 32.2 °F 33.1 °F 92% 29.84 in 10.0 mi West 3.5 mph - N/A   Overcast
5:53 AM 36.0 °F - 34.0 °F 93% 29.82 in 10.0 mi Calm Calm - N/A   Scattered Clouds
6:18 AM 35.6 °F - 33.8 °F 93% 29.81 in 10.0 mi Calm Calm - N/A   Mostly Cloudy
6:32 AM 37.4 °F - 35.6 °F 93% 29.81 in 10.0 mi Calm Calm - N/A   Overcast
6:53 AM 37.9 °F 35.5 °F 35.1 °F 89% 29.82 in 5.0 mi WNW 3.5 mph - N/A   Overcast
7:33 AM 39.2 °F - 37.4 °F 93% 29.81 in 8.0 mi Calm Calm - N/A   Overcast
7:53 AM 39.9 °F - 37.0 °F 89% 29.81 in 10.0 mi Calm Calm - N/A   Overcast
9:53 AM 43.0 °F - 39.9 °F 89% 29.81 in 5.0 mi Calm Calm - 0.00 in   Overcast
10:53 AM 43.0 °F - 39.9 °F 89% 29.81 in 3.0 mi Calm Calm - N/A   Overcast
11:53 AM 45.0 °F 42.6 °F 41.0 °F 86% 29.80 in 5.0 mi North 4.6 mph - N/A   Overcast
12:53 PM 46.0 °F - 41.0 °F 83% 29.79 in 7.0 mi Calm Calm - 0.00 in   Overcast
1:36 PM 46.4 °F - 41.0 °F 81% 29.78 in 9.0 mi Calm Calm - N/A   Overcast
1:53 PM 48.0 °F - 39.9 °F 74% 29.79 in 10.0 mi Calm Calm - N/A   Overcast
2:40 PM 48.2 °F - 41.0 °F 76% 29.78 in 9.0 mi NNE 4.6 mph - N/A   Overcast
2:50 PM 48.2 °F - 39.2 °F 71% 29.79 in 10.0 mi NNE 3.5 mph - N/A   Overcast
2:53 PM 48.0 °F - 39.9 °F 74% 29.79 in 10.0 mi Calm Calm - N/A   Overcast
3:53 PM 48.0 °F - 39.9 °F 74% 29.80 in 10.0 mi Calm Calm - N/A   Overcast
4:53 PM 46.0 °F - 39.9 °F 79% 29.80 in 9.0 mi Calm Calm - N/A   Overcast
5:53 PM 45.0 °F - 39.9 °F 82% 29.81 in 8.0 mi Calm Calm - N/A   Overcast
6:53 PM 39.9 °F - 37.0 °F 89% 29.82 in 5.0 mi Calm Calm - N/A   Clear
7:53 PM 41.0 °F - 37.9 °F 89% 29.83 in 4.0 mi Calm Calm - N/A   Partly Cloudy
8:04 PM 37.4 °F - 35.6 °F 93% 29.83 in 1.8 mi Calm Calm - N/A   Partly Cloudy
8:09 PM 37.4 °F - 35.6 °F 93% 29.83 in 0.8 mi Calm Calm - N/A   Scattered Clouds
8:25 PM 39.2 °F - 37.4 °F 93% 29.83 in 1.2 mi Calm Calm - N/A   Mostly Cloudy
8:38 PM 39.2 °F - 37.4 °F 93% 29.83 in 0.8 mi Calm Calm - N/A   Overcast
8:46 PM 39.2 °F - 37.4 °F 93% 29.84 in 1.8 mi Calm Calm - N/A   Overcast
8:49 PM 39.2 °F - 37.4 °F 93% 29.84 in 3.0 mi Calm Calm - N/A   Overcast
8:53 PM 39.9 °F - 37.9 °F 93% 29.84 in 4.0 mi Calm Calm - N/A   Overcast
9:53 PM 41.0 °F - 37.9 °F 89% 29.85 in 10.0 mi Calm Calm - N/A   Overcast
10:53 PM 39.9 °F 37.8 °F 37.0 °F 89% 29.85 in 10.0 mi NW 3.5 mph - N/A   Overcast
11:33 PM 39.2 °F - 35.6 °F 87% 29.86 in 10.0 mi Calm Calm - N/A   Overcast
11:42 PM 39.2 °F 37.0 °F 35.6 °F 87% 29.86 in 9.0 mi NW 3.5 mph - N/A   Overcast
11:53 PM 39.0 °F 36.8 °F 36.0 °F 89% 29.87 in 7.0 mi WNW 3.5 mph - N/A   Overcast